Regional Weather Roundup
Issued by NWS Newport/Morehead, NC

Current Version | Previous Version | Graphics & Text | Print | Product List | Glossary Off
Versions: 1 2 3 4 5 6 7 8 9 10 11 12 13 14 15 16 17 18 19 20 21 22 23 24 25 26 27 28 29 30 31 32 33 34 35 36 37 38 39 40 41 42 43 44 45 46 47 48 49 50

000
ASUS42 KMHX 240014
RWRMHX
WEATHER ROUNDUP FOR EASTERN NORTH CAROLINA
NATIONAL WEATHER SERVICE NEWPORT/MOREHEAD CITY NC
800 PM EDT WED AUG 23 2017

NOTE: "FAIR" INDICATES FEW OR NO CLOUDS BELOW 12,000 FEET
WITH NO SIGNIFICANT WEATHER AND/OR OBSTRUCTIONS TO VISIBILITY

NCZ015>017-031-032-045>047-102-103-240100-
NORTH COAST

CITY           SKY/WX    TMP DP  RH WIND       PRES   REMARKS
EDENTON        DRIZZLE   75  72  88 CALM      29.83F
ELIZABETH CITY LGT RAIN  74  73  97 SW3       29.84R
KITTY HAWK     LGT RAIN  76  72  87 CALM      29.81F
MANTEO         HVY RAIN  75  72  90 N9G17     29.84R

$$

NCZ045>047-081-094-103-104-240100-
CENTRAL COAST

CITY           SKY/WX    TMP DP  RH WIND       PRES   REMARKS
FRISCO         CLOUDY    81  78  91 SW8       29.82F

$$

NCZ095-097-098-100-101-240100-
SOUTHERN COAST

CITY           SKY/WX    TMP DP  RH WIND       PRES   REMARKS
BEAUFORT       PTCLDY    82  79  90 S15       29.80F
CEDAR ISLAND   NOT AVBL
JACKSONVILLE   CLEAR     82  79  90 S8        29.78F
PINEY ISLAND     N/A    N/A N/A N/A S5        29.81R
WILMINGTON     CLEAR     84  76  76 S13       29.79F


$$

NCZ011>013-027>030-043-044-078>080-089-090>093-098-240100-
COASTAL PLAIN

CITY           SKY/WX    TMP DP  RH WIND       PRES   REMARKS
AHOSKIE        RAIN      73  72  98 CALM      29.83S
CLINTON        CLOUDY    76  74  95 CALM      29.80S
ELIZABETHTOWN  NOT AVBL
GOLDSBORO      PTCLDY    74  74 100 NE8       29.79F
GREENVILLE     LGT RAIN  73  72  94 NE6       29.90R
HAVELOCK       CLEAR     82  77  84 S6        29.81S
KENANSVILLE    LGT RAIN  72  70  94 S6        29.81S
KINSTON        RAIN      77  75  94 N9        29.83R
NEW BERN       CLEAR     82  77  84 S9        29.80S
RICHLANDS      PTCLDY    79  72  79 W16G25    29.82R THUNDER
ROCKY MOUNT    TSTM      74  74 100 CALM      29.84S
WASHINGTON     HVY RAIN  73  72  96 NE8       29.84S
WHITEVILLE     CLOUDY    85  76  73 S9        29.79F

$$

AMZ130-135-150-152-154-156-158-170-250-252-270-ANZ085-086-088-633-658-670-240100-
MARINE OBSERVATIONS

STATION/POSITION TIME  TEMP    WIND        PRES    WAVE   SWELL
                       AIR SEA DIR/SP/G            HT/PER HT/PER
                 (UTC) (F)     (DEG/KT/KT) (MB)    (FT/S) (FT/S)
CHESAPEAKE LIGHT NOT AVBL
64 E VA BEACH    2350   80 80  240/  4/  4 1009.6    3/ 9   3/ 9
DUCK             2336   74 69   10/  3/  4 1009.4
2 E DUCK         2330      74                N/A     2/ 9
OREGON INLET     2336   83 84  210/ 13/ 15 1009.6
13E OREGON INLT  2348      80                N/A     3/ 9   2/ 9
HATTERAS CG      2336   82 81  220/ 10/ 13 1009.5
DIAMOND BUOY     2350   84 84  230/ 16/ 17 1009.7    4/ 5   2/ 9
CAPE LOOKOUT     0000   82     200/ 12/ 16 1008.9
BEAUFORT LAB     2336   83 82  210/ 10/ 15 1009.1
30 SE NEW RVR IN 2308   81 84  230/ 14/ 17 1009.8
30 SE NEW RVR IN 2343      84                N/A     4/ 9
27 SE WRIGHTSVLE 2308   83 84  200/ 16/ 21 1009.5
5 SE WRIGHTSVLE  2308   84 84  210/ 16/ 21 1009.3
225 S CAPE HAT   2350   83 85  210/  8/ 10 1012.2    3/ 9   3/ 9
41 SE CHARLESTON 0000   84 84  200/ 16/ 17 1010.0

$$




USA.gov is the U.S. government's official web portal to all federal, state and local government web resources and services.